This is the latest recevied weather packets stored in our database for station/object KI6PPU. If no packets are shown the sender has not sent any weather packets the latest 10 day(s).
| Time | Temp. | Humidity | Pressure | Rain* | Wind** | Luminosity | Snow |
|---|---|---|---|---|---|---|---|
| 1777741816 | 21.11° C | 69% | 1014.7 hPa | 0 mm | - | 378 W/m² | - |
| 1777741512 | 20.56° C | 71% | 1014.8 hPa | 0 mm | - | 376 W/m² | - |
| 1777741209 | 21.11° C | 72% | 1014.8 hPa | 0 mm | - | 498 W/m² | - |
| 1777740906 | 20.56° C | 72% | 1014.8 hPa | 0 mm | - | 347 W/m² | - |
| 1777740603 | 20.56° C | 66% | 1014.9 hPa | 0 mm | - | 323 W/m² | - |
| 1777740299 | 20.56° C | 74% | 1014.7 hPa | 0 mm | - | 379 W/m² | - |
| 1777739996 | 19.44° C | 78% | 1014.9 hPa | 0 mm | - | 345 W/m² | - |
| 1777739691 | 19.44° C | 74% | 1014.8 hPa | 0 mm | - | 265 W/m² | - |
| 1777739389 | 19.44° C | 73% | 1014.9 hPa | 0 mm | - | 401 W/m² | - |
| 1777739086 | 18.89° C | 76% | 1015 hPa | 0 mm | - | 412 W/m² | - |
| 1777738783 | 18.89° C | 77% | 1014.8 hPa | 0 mm | - | 391 W/m² | - |
| 1777738479 | 18.89° C | 76% | 1014.8 hPa | 0 mm | - | 394 W/m² | - |
| 1777738177 | 18.33° C | 79% | 1014.7 hPa | 0 mm | - | 324 W/m² | - |
| 1777737875 | 17.22° C | 81% | 1014.9 hPa | 0 mm | - | 322 W/m² | - |
| 1777737574 | 16.67° C | 84% | 1014.9 hPa | 0 mm | - | 254 W/m² | - |
| 1777737272 | 16.11° C | 84% | 1014.8 hPa | 0 mm | - | 240 W/m² | - |
| 1777736967 | 15.56° C | 85% | 1014.8 hPa | 0 mm | - | 221 W/m² | - |
| 1777736061 | 15° C | 87% | 1014.8 hPa | 0 mm | - | 185 W/m² | - |
| 1777735758 | 15° C | 87% | 1014.9 hPa | 0 mm | - | 158 W/m² | - |
| 1777735455 | 15° C | 88% | 1014.9 hPa | 0 mm | - | 158 W/m² | - |
| 1777735153 | 15° C | 89% | 1014.8 hPa | 0 mm | - | 147 W/m² | - |
| 1777734849 | 14.44° C | 89% | 1015 hPa | 0 mm | - | 119 W/m² | - |
| 1777734547 | 14.44° C | 90% | 1015 hPa | 0 mm | - | 132 W/m² | - |
| 1777734243 | 13.89° C | 91% | 1015 hPa | 0 mm | - | 113 W/m² | - |
| 1777733940 | 13.89° C | 92% | 1014.9 hPa | 0 mm | - | 105 W/m² | - |
* Rain latest hour (hover to see other rain measurements)
** Current wind speed in m/s (hover to see current wind gust speed)